CW9009 Weather Reports


Display with metric or nautical units.
time (UTC)temp
F
wind
direction
speed
MPH
gust
MPH
rain 1hr
in
rain 24hr
in
rain mn
in
humidity
%
barometer
mb
20260905214417 76 0 0.0 0.0 0.00 0.00 0.00 60 1015.1
20260905213432 76 0.0 0.0 0.00 0.00 0.00 63 1015.2
20260905212433 75 281 1.0 2.0 0.00 0.00 0.00 62 1015.2
20260905211513 74 0.0 0.0 0.00 0.00 0.00 65 1015.4
20260905210418 73 275 2.0 3.0 0.00 0.02 0.00 64 1015.7
20260905205418 73 271 1.0 2.0 0.00 0.03 0.00 65 1015.8
20260905204418 73 0 0.0 0.0 0.00 0.03 0.00 67 1015.9
20260905203438 72 0 0.0 0.0 0.00 0.04 0.00 67 1015.9
20260905202438 71 0.0 0.0 0.00 0.04 0.00 70 1016.0
20260905201419 70 141 0.0 1.0 0.00 0.05 0.00 68 1016.0
20260905200419 70 125 0.0 2.0 0.00 0.06 0.00 70 1016.1
20260905195419 69 91 1.0 1.0 0.00 0.06 0.00 72 1016.3
20260905194420 68 0 0.0 0.0 0.00 0.06 0.00 74 1016.5
20260905193419 68 0 0.0 0.0 0.00 0.07 0.00 75 1016.6
20260905192419 67 0 0.0 0.0 0.00 0.09 0.00 77 1016.6
20260905191420 66 252 2.0 2.0 0.00 0.11 0.00 79 1016.7
20260905190420 66 0.0 0.0 0.00 0.12 0.00 80 1017.0
20260905185420 65 0.0 0.0 0.00 0.13 0.00 80 1017.1
20260905184420 64 0.0 0.0 0.00 0.14 0.00 81 1017.1
20260905183421 64 267 2.0 3.0 0.00 0.14 0.00 83 1017.3
20260905182420 63 0.0 0.0 0.00 0.14 0.00 84 1017.3
20260905181421 62 253 1.0 2.0 0.00 0.14 0.00 86 1017.6
20260905180421 61 181 0.0 0.0 0.00 0.14 0.00 86 1017.6
20260905175501 60 249 1.0 3.0 0.00 0.14 0.00 86 1017.6
20260905174421 60 0.0 0.0 0.00 0.14 0.00 89 1017.7
20260905173421 59 0.0 0.0 0.00 0.14 0.00 89 1017.8
20260905172421 58 315 0.0 1.0 0.00 0.15 0.00 90 1017.7
20260905171422 58 0 0.0 0.0 0.00 0.15 0.00 91 1017.7
20260905170422 57 268 1.0 2.0 0.00 0.15 0.00 93 1017.7
20260905165422 57 235 2.0 3.0 0.00 0.15 0.00 93 1017.7
20260905164422 56 247 2.0 2.0 0.00 0.15 0.00 93 1017.8
20260905163442 56 0.0 0.0 0.00 0.15 0.00 94 1017.7
20260905162443 55 0.0 0.0 0.00 0.15 0.00 95 1017.8
20260905161423 54 253 2.0 2.0 0.00 0.15 0.00 96 1017.6
20260905160443 54 0.0 0.0 0.00 0.15 0.00 98 1017.7
20260905155423 54 0.0 0.0 0.00 0.15 0.00 98 1017.8
20260905154444 53 249 1.0 2.0 0.00 0.15 0.00 99 1017.7
20260905153423 53 60 0.0 1.0 0.00 0.15 0.00 99 1017.7
20260905152424 52 262 0.0 1.0 0.00 0.15 0.00 99 1017.6
20260905151424 51 0.0 0.0 0.00 0.15 0.00 99 1017.7
20260905150424 51 0.0 0.0 0.00 0.15 0.00 99 1017.8
20260905145444 51 0.0 0.0 0.00 0.15 0.00 99 1017.9
20260905144424 50 84 0.0 1.0 0.00 0.15 0.00 99 1017.8
20260905143444 50 0.0 0.0 0.00 0.15 0.00 99 1017.7
20260905142424 49 0.0 0.0 0.00 0.15 0.00 99 1017.7
20260905141425 49 105 1.0 1.0 0.00 0.15 0.00 99 1017.7
20260905140425 49 193 1.0 1.0 0.00 0.15 0.00 99 1017.6
20260905135426 49 201 1.0 1.0 0.00 0.15 0.00 99 1017.7
20260905134426 49 197 1.0 1.0 0.00 0.15 0.00 99 1017.6
20260905133426 49 201 1.0 1.0 0.00 0.15 0.00 99 1017.5
20260905132426 49 198 1.0 1.0 0.00 0.15 0.00 99 1017.4
20260905131426 50 198 1.0 1.0 0.00 0.15 0.00 99 1017.3
20260905130426 50 76 1.0 1.0 0.00 0.15 0.00 99 1017.3
20260905125427 50 51 1.0 2.0 0.00 0.15 0.00 99 1017.2
20260905124447 50 48 1.0 1.0 0.00 0.15 0.00 99 1017.0
20260905123426 50 197 1.0 1.0 0.00 0.15 0.00 99 1017.0
20260905122427 51 176 1.0 2.0 0.00 0.15 0.00 99 1016.9
20260905121427 51 199 1.0 1.0 0.00 0.15 0.00 99 1016.9
20260905120427 51 184 1.0 1.0 0.00 0.15 0.00 99 1017.0
20260905115427 51 0.0 0.0 0.00 0.15 0.00 99 1016.9
20260905114428 51 0.0 0.0 0.00 0.15 0.00 99 1016.9
20260905113447 51 0.0 0.0 0.00 0.15 0.00 99 1016.9
20260905112428 51 0.0 0.0 0.00 0.15 0.00 99 1017.0
20260905111428 51 0.0 0.0 0.00 0.15 0.00 99 1016.9
20260905110428 51 0.0 0.0 0.00 0.15 0.00 99 1016.7
20260905105428 52 217 0.0 0.0 0.00 0.15 0.00 99 1016.6
20260905104428 52 91 1.0 1.0 0.00 0.15 0.00 99 1016.6
20260905103449 52 120 1.0 1.0 0.00 0.15 0.00 99 1016.7
20260905102429 52 0.0 0.0 0.00 0.15 0.00 99 1016.6
20260905101509 52 0.0 0.0 0.00 0.15 0.00 99 1016.7
20260905100429 53 0.0 0.0 0.00 0.15 0.00 99 1016.5
20260905095449 53 0.0 0.0 0.00 0.15 0.00 99 1016.6
20260905094429 53 0.0 0.0 0.00 0.15 0.00 99 1016.5
20260905093450 54 0.0 0.0 0.00 0.15 0.00 99 1016.5
20260905092430 54 0.0 0.0 0.00 0.16 0.00 99 1016.4
20260905091450 54 0.0 0.0 0.00 0.17 0.00 99 1016.5
20260905090430 54 0.0 0.0 0.00 0.18 0.00 99 1016.5
20260905085430 53 0.0 0.0 0.00 0.18 0.00 99 1016.5
20260905084430 53 0.0 0.0 0.00 0.18 0.00 99 1016.4
20260905083430 53 0.0 0.0 0.00 0.18 0.00 99 1016.3
20260905082431 54 0.0 0.0 0.00 0.18 0.00 99 1016.3
20260905081451 54 0.0 0.0 0.00 0.18 0.00 99 1016.3
20260905080431 54 0.0 0.0 0.00 0.18 0.00 99 1016.3
20260905075431 54 0.0 0.0 0.00 0.18 0.00 99 1016.2
20260905074417 53 0.0 0.0 0.00 0.18 0.00 99 1016.1
20260905073417 54 0.0 0.0 0.00 0.18 0.00 99 1016.3
20260905072417 53 0.0 0.0 0.00 0.18 0.00 99 1016.3
20260905071418 54 0.0 0.0 0.00 0.19 0.00 99 1016.1
20260905070417 54 0.0 0.0 0.00 0.19 0.00 99 1016.0
20260905065418 54 0.0 0.0 0.00 0.19 0.00 99 1016.0
20260905064418 54 0.0 0.0 0.00 0.21 0.00 99 1015.8
20260905063438 54 0.0 0.0 0.00 0.22 0.00 99 1015.8
20260905062438 54 0.0 0.0 0.00 0.22 0.00 99 1015.3
20260905061418 54 175 0.0 1.0 0.00 0.22 0.00 99 1015.9
20260905060418 54 113 1.0 1.0 0.00 0.23 0.00 99 1015.2
20260905055418 54 0.0 0.0 0.00 0.23 0.23 99 1015.2
20260905054418 54 0.0 0.0 0.00 0.23 0.23 99 1015.1
20260905053418 54 0.0 0.0 0.00 0.23 0.23 99 1015.2
20260905052439 55 72 0.0 1.0 0.00 0.23 0.23 99 1015.3
20260905051419 55 0.0 0.0 0.00 0.24 0.23 99 1015.3
20260905050419 55 0.0 0.0 0.00 0.24 0.23 99 1015.4
20260905045419 55 0 0.0 0.0 0.00 0.24 0.23 98 1015.3
20260905044419 55 201 1.0 1.0 0.00 0.24 0.23 96 1015.3
20260905043420 55 0.0 0.0 0.00 0.24 0.23 95 1015.2
20260905042420 55 0.0 0.0 0.00 0.24 0.23 95 1015.1
20260905041420 55 0.0 0.0 0.00 0.24 0.23 94 1015.2
20260905040500 56 0.0 0.0 0.00 0.24 0.23 94 1015.2
20260905035420 56 0.0 0.0 0.00 0.24 0.23 93 1015.8
20260905034421 56 0.0 0.0 0.00 0.24 0.23 93 1015.2
20260905033441 56 243 1.0 2.0 0.00 0.24 0.23 91 1014.9
20260905032421 57 0.0 0.0 0.00 0.24 0.23 91 1015.1
20260905031421 57 0.0 0.0 0.00 0.24 0.23 90 1015.1
20260905030421 57 0.0 0.0 0.00 0.24 0.23 90 1015.0
20260905025421 58 0.0 0.0 0.00 0.24 0.23 90 1015.0
20260905024422 58 0.0 0.0 0.00 0.24 0.23 90 1014.8
20260905023422 58 0.0 0.0 0.00 0.24 0.23 89 1014.8
20260905022422 59 0.0 0.0 0.00 0.24 0.23 86 1015.1
20260905021423 59 0.0 0.0 0.00 0.24 0.23 86 1015.0
20260905020422 60 0.0 0.0 0.00 0.24 0.23 85 1015.1
20260905015422 61 0.0 0.0 0.00 0.24 0.23 84 1015.4
20260905014423 61 0.0 0.0 0.00 0.24 0.23 83 1015.2
20260905013423 61 0.0 0.0 0.00 0.24 0.23 83 1015.1
20260905012443 61 0.0 0.0 0.00 0.24 0.23 83 1015.2
20260905011423 61 0.0 0.0 0.00 0.24 0.23 83 1015.2
20260905010444 60 0.0 0.0 0.00 0.24 0.23 84 1015.4
20260905005423 60 0.0 0.0 0.00 0.24 0.23 84 1015.2
20260905004424 60 0.0 0.0 0.00 0.24 0.23 84 1015.3
20260905003424 60 0.0 0.0 0.00 0.24 0.23 83 1015.8
20260905002424 60 0.0 0.0 0.00 0.24 0.23 81 1015.4
20260905001444 60 0.0 0.0 0.00 0.24 0.23 83 1015.8
20260905000425 61 289 1.0 2.0 0.00 0.24 0.23 83 1015.9
20260904235424 60 311 1.0 1.0 0.00 0.24 0.23 83 1015.7
20260904234425 60 222 1.0 3.0 0.00 0.24 0.23 85 1015.7
20260904233425 59 0 0.0 0.0 0.00 0.24 0.23 85 1015.7
20260904232425 59 0.0 0.0 0.00 0.24 0.23 86 1015.7
20260904231425 58 0.0 0.0 0.00 0.24 0.23 90 1016.0
20260904230426 57 244 0.0 1.0 0.00 0.24 0.23 91 1015.9
20260904225426 56 0.0 0.0 0.00 0.24 0.23 93 1016.0
20260904224426 56 0.0 0.0 0.00 0.24 0.23 94 1015.9
20260904223446 55 0.0 0.0 0.00 0.24 0.23 96 1016.1
20260904222426 55 0.0 0.0 0.00 0.24 0.23 98 1016.3
20260904221426 54 0.0 0.0 0.00 0.24 0.23 99 1016.4
20260904220427 54 0.0 0.0 0.02 0.24 0.23 98 1016.4
20260904215426 54 0.0 0.0 0.03 0.24 0.23 96 1016.4